Weather History for Chippewa, MI

Change the Weather History Date:

Thursday, January 24, 2013

  Actual Average Record
Temperature  
Mean Temperature 0 °F -  
Max Temperature 12 °F 26 °F 44 °F (1989)
Min Temperature -11 °F 8 °F -18 °F (2004)
Degree Days  
Heating Degree Days 64    
Moisture  
Dew Point -6 °F    
Average Humidity 78    
Maximum Humidity 100    
Minimum Humidity 44    
Precipitation  
Precipitation 0.00 in - - ()
Sea Level Pressure  
Sea Level Pressure 30.47 in    
Wind  
Wind Speed 5 mph (NNW)    
Max Wind Speed 10 mph    
Max Gust Speed -    
Visibility 10 miles    
Events      
Averages and records for this station are not official NWS values.
T = Trace of Precipitation, MM = Missing Value Source: NWS Daily Summary

Daily Weather History Graph

Daily Weather History Graph

Search for Another Location

Airport:

Trip Planner

Search our weather history database for the weather conditions in past years. The results will help you decide how hot, cold, wet, or windy it might be!

Date:

Astronomy

Jan. 24, 2013 Rise Set
Actual Time 8:09 AM EST 5:31 PM EST
Civil Twilight 7:36 AM EST 6:04 PM EST
Nautical Twilight 7:00 AM EST 6:40 PM EST
Astronomical Twilight 6:24 AM EST 7:16 PM EST
Moon 3:30 PM EST (1/24) 6:08 AM EST (1/24)
Length of Visible Light 10h 27m
Length of Day
9h 21m
Waxing Gibbous, 94% of the Moon is Illuminated
Jan 24
Waxing Gibbous
Jan 26
Full
Feb 3
Last Quarter
Feb 10
New
Feb 17
First Quarter

Hourly Weather History & Observations

Time (EST) Temp. Windchill Dew Point Humidity Pressure Visibility Wind Dir Wind Speed Gust Speed Precip Events Conditions
12:15 AM 1.4 °F -12.5 °F -2.2 °F 85% 30.24 in 10.0 mi North 8.1 mph - N/A   Clear
12:35 AM -0.4 °F -14.7 °F -4.0 °F 85% 30.26 in 10.0 mi NNE 8.1 mph - N/A   Clear
12:55 AM -2.2 °F -16.8 °F -5.8 °F 85% 30.27 in 10.0 mi NNE 8.1 mph - N/A   Clear
1:15 AM -2.2 °F -18.9 °F -5.8 °F 85% 30.28 in 10.0 mi NNE 10.4 mph - N/A   Clear
1:35 AM -2.2 °F -16.8 °F -7.6 °F 78% 30.30 in 10.0 mi North 8.1 mph - N/A   Clear
1:55 AM -4.0 °F -20.2 °F -7.6 °F 85% 30.32 in 10.0 mi North 9.2 mph - N/A   Clear
2:15 AM -5.8 °F -19.9 °F -9.4 °F 84% 30.34 in 10.0 mi North 6.9 mph - N/A   Clear
2:35 AM -5.8 °F -18.4 °F -9.4 °F 84% 30.35 in 10.0 mi North 5.8 mph - N/A   Clear
2:55 AM -7.6 °F -23.4 °F -9.4 °F 92% 30.37 in 10.0 mi North 8.1 mph - N/A   Clear
3:15 AM -7.6 °F -22.1 °F -11.2 °F 84% 30.38 in 10.0 mi North 6.9 mph - N/A   Clear
3:35 AM -7.6 °F -16.5 °F -11.2 °F 84% 30.40 in 10.0 mi North 3.5 mph - N/A   Clear
3:55 AM -9.4 °F -25.6 °F -11.2 °F 92% 30.41 in 10.0 mi North 8.1 mph - N/A   Clear
4:15 AM -9.4 °F -25.6 °F -13.0 °F 84% 30.42 in 10.0 mi NNE 8.1 mph - N/A   Clear
4:35 AM -9.4 °F -20.9 °F -13.0 °F 84% 30.43 in 10.0 mi NNE 4.6 mph - N/A   Clear
4:55 AM -9.4 °F -24.3 °F -14.8 °F 77% 30.44 in 10.0 mi North 6.9 mph - N/A   Clear
5:15 AM -11.2 °F -26.4 °F -14.8 °F 84% 30.45 in 10.0 mi NNW 6.9 mph - N/A   Clear
5:35 AM -11.2 °F -29.0 °F -14.8 °F 84% 30.46 in 10.0 mi North 9.2 mph - N/A   Clear
5:55 AM -11.2 °F -26.4 °F -14.8 °F 84% 30.47 in 10.0 mi North 6.9 mph - N/A   Clear
6:15 AM -9.4 °F -26.8 °F -14.8 °F 77% 30.48 in 10.0 mi North 9.2 mph - N/A   Clear
6:35 AM -11.2 °F -20.6 °F -14.8 °F 84% 30.49 in 10.0 mi NNE 3.5 mph - N/A   Clear
6:55 AM -11.2 °F -23.0 °F -16.6 °F 77% 30.49 in 10.0 mi North 4.6 mph - N/A   Clear
7:15 AM -11.2 °F -24.8 °F -14.8 °F 84% 30.50 in 10.0 mi North 5.8 mph - N/A   Clear
7:35 AM -11.2 °F -24.8 °F -16.6 °F 77% 30.51 in 10.0 mi North 5.8 mph - N/A   Clear
7:55 AM -11.2 °F -27.8 °F -16.6 °F 77% 30.51 in 10.0 mi NNE 8.1 mph - N/A   Clear
8:15 AM -11.2 °F -23.0 °F -16.6 °F 77% 30.52 in 10.0 mi NNE 4.6 mph - N/A   Clear
8:35 AM -11.2 °F -26.4 °F -16.6 °F 77% 30.52 in 10.0 mi NNE 6.9 mph - N/A   Clear
8:55 AM -11.2 °F -27.8 °F -16.6 °F 77% 30.53 in 10.0 mi NE 8.1 mph - N/A   Clear
9:15 AM -9.4 °F -20.9 °F -16.6 °F 71% 30.54 in 10.0 mi NNE 4.6 mph - N/A   Clear
9:35 AM -7.6 °F - -14.8 °F 71% 30.55 in 10.0 mi Calm Calm - N/A   Clear
9:55 AM -4.0 °F - -11.2 °F 71% 30.56 in 10.0 mi Calm Calm - N/A   Clear
10:15 AM 1.4 °F - -11.2 °F 56% 30.56 in 10.0 mi Calm Calm - N/A   Clear
10:35 AM 6.8 °F - -9.4 °F 48% 30.57 in 10.0 mi Calm Calm - N/A   Clear
10:55 AM 10.4 °F - -7.6 °F 44% 30.58 in 10.0 mi Calm Calm - N/A   Clear
11:15 AM 6.8 °F - -5.8 °F 56% 30.58 in 10.0 mi Calm Calm - N/A   Clear
11:35 AM 10.4 °F 4.0 °F -2.2 °F 57% 30.56 in 10.0 mi West 3.5 mph - N/A   Clear
11:55 AM 6.8 °F -0.1 °F -5.8 °F 56% 30.55 in 10.0 mi WSW 3.5 mph - N/A   Clear
12:15 PM 5.0 °F -2.1 °F -5.8 °F 61% 30.55 in 10.0 mi West 3.5 mph - N/A   Clear
12:35 PM 5.0 °F - -5.8 °F 61% 30.55 in 10.0 mi Calm Calm - N/A   Clear
12:55 PM 6.8 °F - -4.0 °F 61% 30.55 in 10.0 mi Calm Calm - N/A   Clear
1:15 PM 6.8 °F -3.5 °F -2.2 °F 67% 30.54 in 10.0 mi West 5.8 mph - N/A   Clear
1:35 PM 6.8 °F - -2.2 °F 67% 30.53 in 10.0 mi Calm Calm - N/A   Clear
1:55 PM 8.6 °F 2.0 °F -2.2 °F 62% 30.53 in 10.0 mi WSW 3.5 mph - N/A   Clear
2:15 PM 8.6 °F 0.1 °F -2.2 °F 62% 30.53 in 10.0 mi WSW 4.6 mph - N/A   Clear
2:35 PM 8.6 °F 2.0 °F -0.4 °F 67% 30.53 in 10.0 mi West 3.5 mph - N/A   Clear
2:55 PM 12.2 °F - 1.4 °F 62% 30.52 in 10.0 mi Calm Calm - N/A   Clear
3:15 PM 10.4 °F 2.2 °F -0.4 °F 62% 30.52 in 10.0 mi West 4.6 mph - N/A   Clear
3:35 PM 10.4 °F - 1.4 °F 67% 30.51 in 10.0 mi Calm Calm - N/A   Clear
3:55 PM 12.2 °F - 1.4 °F 62% 30.51 in 10.0 mi Calm Calm - N/A   Clear
4:15 PM 12.2 °F - 1.4 °F 62% 30.52 in 10.0 mi Calm Calm - N/A   Clear
4:35 PM 10.4 °F - 1.4 °F 67% 30.52 in 10.0 mi Calm Calm - N/A   Clear
4:55 PM 10.4 °F - -0.4 °F 62% 30.52 in 10.0 mi Calm Calm - N/A   Partly Cloudy
5:15 PM 6.8 °F - -2.2 °F 67% 30.52 in 10.0 mi Calm Calm - N/A   Mostly Cloudy
5:35 PM 5.0 °F -2.1 °F -0.4 °F 78% 30.50 in 10.0 mi South 3.5 mph - N/A   Partly Cloudy
5:55 PM 3.2 °F - -2.2 °F 78% 30.49 in 10.0 mi Calm Calm - N/A   Clear
6:15 PM 1.4 °F -6.2 °F -2.2 °F 85% 30.50 in 10.0 mi South 3.5 mph - N/A   Clear
6:35 PM 3.2 °F -4.2 °F 1.4 °F 92% 30.50 in 10.0 mi South 3.5 mph - N/A   Clear
6:55 PM 3.2 °F -6.2 °F 1.4 °F 92% 30.49 in 10.0 mi South 4.6 mph - N/A   Scattered Clouds
7:15 PM 3.2 °F -6.2 °F 1.4 °F 92% 30.48 in 10.0 mi SSW 4.6 mph - N/A   Scattered Clouds
7:35 PM 3.2 °F -6.2 °F 1.4 °F 92% 30.48 in 10.0 mi South 4.6 mph - N/A   Clear
7:55 PM 3.2 °F -6.2 °F 1.4 °F 92% 30.47 in 10.0 mi South 4.6 mph - N/A   Clear
8:15 PM 3.2 °F -6.2 °F 1.4 °F 92% 30.46 in 10.0 mi South 4.6 mph - N/A   Clear
8:35 PM 3.2 °F -6.2 °F 1.4 °F 92% 30.45 in 10.0 mi South 4.6 mph - N/A   Clear
8:55 PM 3.2 °F -4.2 °F 1.4 °F 92% 30.45 in 10.0 mi South 3.5 mph - N/A   Clear
9:15 PM 3.2 °F - 1.4 °F 92% 30.45 in 10.0 mi Calm Calm - N/A   Partly Cloudy
9:35 PM 1.4 °F - -0.4 °F 92% 30.43 in 10.0 mi Calm Calm - N/A   Scattered Clouds
9:55 PM 1.4 °F - -0.4 °F 92% 30.42 in 10.0 mi Calm Calm - N/A   Clear
10:15 PM -0.4 °F - -2.2 °F 92% 30.41 in 10.0 mi Calm Calm - N/A   Clear
10:35 PM -0.4 °F -8.3 °F -2.2 °F 92% 30.42 in 10.0 mi South 3.5 mph - N/A   Clear
10:55 PM 1.4 °F -6.2 °F 1.4 °F 100% 30.42 in 10.0 mi SSW 3.5 mph - N/A   Clear
11:15 PM 5.0 °F -2.1 °F 3.2 °F 92% 30.41 in 10.0 mi South 3.5 mph - N/A   Clear
11:35 PM 5.0 °F -4.1 °F 3.2 °F 92% 30.40 in 10.0 mi South 4.6 mph - N/A   Clear
11:55 PM 6.8 °F -3.5 °F 3.2 °F 85% 30.40 in 10.0 mi South 5.8 mph - N/A   Clear